NOAA 16 DEB, 42368

Orbit data source: Space-Track

NOAA 16 DEB, 42368 is space debris in SSO originally from a launch on Thu, 21 Sep 2000 UTC launched from the Air Force Western Test Range (AFWTR). Debris objects in space refer to the collection of defunct objects orbiting the Earth. Examples of debris include non-operational satellites, rocket bodies, and fragments generated from explosions, collisions, or faulty payload assembly.

Loading next visibility...
NOAA 16 DEB details
Identifier
42368, 2000-055RL
Orbit
SSO
Last TLE update20 hours ago
Origin
Flag of USNOAA (US)
ManufacturerUnknown
MissionSpacecraft
Bus & MotorUnknown
MassUnknown
Launch date (UTC)
2000-09-21 (24 years ago)
Launch vehicleUnknown
Launch site
Air Force Western Test Range (AFWTR)
Object type
Payload
Rocket body
Debris
Shape & HBRUnknown
Radar Cross SectionSmall (<0.1 m²)

Expand to show TLE details & history

TLE from 20 hours ago
0 NOAA 16 DEB
1 42368U 00055RL  24361.14617218  .00009711  00000-0  42921-2 0  9997
2 42368  98.7478  73.2898 0013248 189.0779 171.0161 14.23366057450535
Epoch: 2024-12-26T03:30Z
Definitive object data (Epoch: 2024-12-26T03:30:29.276Z)
Latitude-0.00008°
Longitude-74.46193°
Altitude826.323 km
Speed7.435 km/s
True Right ascension04h 53m 09s
True Declination0° 00' 00"
Sunlit
Object was in full shadow at TLE epoch
Visualization TLE readout
Latitude-81.1865°
Longitude7.17722°
Altitude841.255 km
Speed7.432 km/s
Apparent Right ascension10h 39m 07s
Apparent Declination-61° 46' 24"
Sunlit
Object is in daylight
Visualization observer readout
Local Sidereal Time22:43:30
Azimuth178.606° S
Elevation-68.133°
Doppler factor1
Orbital elements
Apogee altitude820.672 km
Perigee altitude801.623 km
Semi-major axis7,189.284 km
Eccentricity0.0013248
Inclination98.7478°
RAAN73.2898°
Arg. of periapsis189.0779°
True anomaly171.03977°
Mean anomaly171.0161°
Eccentric anomaly171.02794°
Mean motion3.56053 °/min
BSTAR0.0042921
Orbital period101.11 mins
Loading maneuver chart data...
Loading historical data...
Loading historical data...
Loading historical data...
Loading historical data...
Loading historical data...
Loading historical data...
Loading historical data...

NOAA 16 DEB Visibility forecast

Observer location: undefined°, undefined

Span
Click to sort rows by Start time (UTC) header in descending order
Start Az.
Max El. time (UTC)
Max El. Az.
Max El.
End time (UTC)
End Az.
9 mins2024-12-27 04:56:12.744Z162.05° S2024-12-27 05:00:12.744Z98.947° ESE44.843°2024-12-27 05:05:12.744Z347.894° N
7 mins2024-12-27 17:14:12.744Z46.051° ENE2024-12-27 17:17:12.744Z99.288° ESE29.106°2024-12-27 17:21:12.744Z157.923° S
7 mins2024-12-27 18:54:12.744Z338.014° N2024-12-27 18:57:12.744Z287.773° WNW25.918°2024-12-27 19:01:12.744Z236.018° WSW
|